Theta_e
316 316 315 314 312 311 310 310 311 313 318 317 318 317 314 313 313 312 312 311 310 311 311 311 310 310 310 310 309 311 316 319
314 312 309 308 308 308 309 310 313 318 318 318 318 316 315 314 313 313 313 313 312 312 313 312 312 312 311 310 310 311 309 309
312 309 308 307 308 309 311 315 318 319 317 318 318 317 316 316 313 313 313 313 314 314 315 314 313 312 312 312 311 310 310 311
317 317 314 314 315 315 316 316 317 317 316 317 317 318 316 315 313 313 313 314 315 315 315 315 313 312 311 311 311 311 310 309
317 319 320 320 319 317 318 318 320 320 318 315 316 317 317 316 313 313 314 314 314 314 314 312 311 311 311 310 310 310 311 311
319 320 322 324 324 322 321 320 321 321 321 317 314 315 316 315 313 313 314 315 314 313 311 311 312 312 312 311 310 310 310 312
322 319 323 325 326 325 325 324 324 323 323 319 316 313 315 313 313 314 315 315 312 311 311 313 313 313 313 312 309 307 309 312
326 320 324 325 326 326 326 325 325 325 323 320 319 317 316 315 314 315 314 312 311 312 313 313 311 310 308 307 305 303 302 302
328 323 326 326 325 326 326 325 325 324 324 321 319 318 318 318 317 316 315 314 313 313 312 309 308 307 306 306 304 303 302 302
328 325 326 326 326 325 324 325 323 322 323 321 319 319 319 318 317 315 313 312 311 309 308 307 307 306 306 305 305 304 303 302
328 325 325 326 324 322 323 322 320 321 321 320 319 318 317 315 314 313 314 310 309 308 308 307 306 305 305 303 301 299 298 298
327 325 324 325 325 324 322 321 318 318 318 318 317 316 314 314 314 311 310 309 308 308 307 307 305 302 299 296 295 295 296 300
326 324 325 324 323 321 318 317 319 319 315 314 314 313 313 312 311 309 310 309 308 307 305 300 297 295 294 294 294 297 296 295
324 323 324 321 321 320 319 318 314 313 312 312 312 312 312 311 310 309 308 308 307 300 295 294 293 293 294 294 296 295 297 298
318 319 320 318 316 314 313 313 312 312 312 312 312 312 311 309 307 306 303 301 298 296 294 293 293 293 294 296 297 297 296 295
314 314 314 314 314 314 314 314 314 313 313 312 311 309 308 305 301 299 299 298 297 294 292 292 293 294 295 297 296 296 295 294
315 315 315 315 315 315 314 314 313 312 311 310 308 303 303 302 300 300 299 299 294 292 292 292 292 293 293 292 292 292 292 293
315 315 315 315 314 314 313 312 311 309 305 302 302 301 300 301 300 300 299 299 294 292 291 291 290 290 290 290 290 291 291 291
315 315 314 313 312 311 310 308 305 303 301 301 301 301 300 300 300 300 299 296 294 296 292 291 290 289 289 288 289 289 289 289
314 313 310 309 307 306 304 302 302 303 303 303 302 301 301 300 300 299 299 297 296 294 291 290 289 288 287 288 288 288 288 288
Wind_Speed
16 14 12 10 9 10 11 12 14 14 13 14 13 13 14 14 15 14 14 14 16 17 19 18 18 19 18 17 16 13 11 10
14 12 11 11 12 12 13 14 15 15 12 12 11 12 12 11 13 12 12 12 12 12 14 15 16 16 17 17 17 15 14 14
13 13 13 13 14 14 14 15 14 12 10 10 9 9 9 8 9 9 10 8 7 8 9 10 13 15 15 15 16 16 15 15
15 14 14 14 14 15 14 14 12 10 8 7 6 5 6 6 5 5 5 5 5 5 7 11 15 17 17 16 17 18 16 15
15 15 15 14 13 13 13 12 9 8 7 5 4 4 4 3 2 2 2 4 5 7 10 14 16 18 19 18 18 17 16 14
15 15 13 13 12 10 10 9 5 4 3 2 1 1 0 1 2 4 6 6 7 10 12 15 21 25 28 27 24 20 17 16
15 14 13 11 10 9 8 6 3 1 1 0 2 2 4 4 4 6 8 7 8 10 14 21 27 30 29 30 26 21 19 18
16 14 13 11 8 9 8 6 6 6 5 4 4 4 5 6 7 8 8 10 13 16 21 27 31 32 29 26 23 21 20 19
18 15 13 13 10 10 7 11 13 10 10 8 7 7 8 8 8 8 12 16 18 22 27 29 31 31 28 27 25 23 23 23
21 20 14 12 9 5 9 16 13 12 12 9 9 11 10 10 11 13 15 21 25 28 32 33 33 34 32 29 30 30 28 26
26 22 18 11 4 16 13 14 13 13 11 11 11 10 10 13 15 22 26 25 27 30 32 35 36 34 32 30 27 24 24 23
27 23 18 14 12 9 11 10 5 4 5 10 9 13 14 17 23 22 22 25 27 31 34 35 34 33 30 27 26 23 20 15
20 18 11 7 6 3 7 4 5 12 8 8 14 14 17 20 22 21 26 28 29 33 36 32 28 28 30 30 27 11 18 24
6 6 11 4 3 4 3 7 7 9 12 14 16 18 22 23 22 25 28 32 34 29 26 27 25 24 24 26 10 22 11 11
16 14 8 4 3 5 6 9 9 12 14 17 19 21 21 19 23 29 31 26 24 26 26 23 23 22 21 18 10 8 26 21
15 13 9 5 2 4 7 10 13 16 18 18 17 16 20 24 26 24 23 24 25 24 23 22 20 19 17 12 15 19 21 23
11 7 5 4 5 8 11 14 15 15 14 13 15 20 22 23 22 23 23 23 24 22 20 18 17 18 19 22 23 21 18 16
9 6 3 4 7 9 10 10 9 8 11 14 18 20 21 24 24 27 26 25 23 21 21 19 18 18 19 19 19 20 23 22
4 2 4 5 6 7 8 9 9 13 16 17 19 20 22 23 24 21 19 22 23 29 20 21 20 19 19 21 20 21 21 23
6 3 6 8 9 9 7 11 13 13 15 18 21 22 24 24 23 21 24 30 30 20 16 18 18 18 18 18 20 20 20 20
Wind_Direction
159 158 155 149 141 140 129 124 117 115 109 109 106 100 92 86 78 75 74 75 69 63 58 50 43 37 31 22 19 8 350 347
161 158 151 144 143 137 134 130 127 127 122 119 110 100 91 84 80 81 79 75 62 52 47 39 35 34 31 21 16 10 6 360
159 151 146 144 143 142 141 134 132 134 124 124 113 101 95 85 79 83 85 79 62 37 36 21 16 15 11 12 8 360 357 357
157 152 150 148 148 144 143 140 133 130 132 118 105 113 115 109 96 86 77 56 41 17 9 2 1 358 356 351 348 347 344 335
165 158 152 149 147 144 144 149 148 133 119 112 132 135 126 129 111 58 7 1 354 352 348 347 350 350 348 345 339 332 323 315
169 169 164 159 165 158 154 161 161 129 107 88 106 108 349 253 331 322 322 326 331 334 339 347 344 336 330 332 329 320 311 302
178 182 178 178 182 190 190 192 182 207 251 320 352 317 296 286 289 299 293 304 318 331 333 332 330 332 328 322 322 318 307 298
187 190 195 203 209 221 227 242 247 233 225 242 254 247 257 261 261 268 289 306 314 317 320 324 326 329 328 323 322 321 314 305
198 190 208 218 224 232 242 255 238 235 231 247 254 250 254 257 261 284 304 308 311 316 321 323 324 322 318 315 314 311 308 305
207 192 209 202 188 172 233 234 233 239 238 254 258 262 264 271 294 305 310 317 322 325 325 323 319 313 311 308 309 309 307 305
210 194 197 185 235 240 238 240 238 241 250 260 271 278 299 307 323 316 317 318 326 328 328 325 319 313 312 311 310 308 306 303
206 187 195 206 226 226 243 249 222 251 291 295 291 309 301 315 301 298 310 321 322 325 325 321 315 313 315 315 315 314 301 294
188 196 225 228 201 208 127 91 340 320 325 306 298 294 291 300 304 306 312 316 318 323 318 314 315 314 316 314 320 305 299 301
150 183 169 152 332 345 338 331 354 333 317 310 307 309 308 309 308 315 318 316 314 318 318 319 320 322 325 329 325 310 300 278
98 102 102 88 37 29 6 337 309 299 299 302 304 309 306 312 320 318 319 324 324 322 321 320 323 322 323 325 321 298 308 309
115 116 120 105 14 307 285 286 291 286 285 290 294 312 324 328 331 330 331 331 331 331 328 324 321 321 324 307 297 297 308 309
138 135 151 192 236 266 278 281 283 288 295 306 318 320 318 324 335 326 326 326 328 329 329 331 332 328 325 321 318 317 318 308
171 162 177 266 284 290 286 294 302 311 321 328 326 332 332 326 327 328 323 316 317 325 324 326 327 326 326 322 319 316 315 315
169 196 278 305 312 304 303 315 326 330 333 329 327 321 327 324 314 301 301 308 311 316 319 328 331 329 326 320 313 310 311 313
180 242 311 310 304 306 324 338 341 336 325 319 321 323 324 316 304 297 300 314 316 312 318 321 320 321 320 312 309 307 309 310